Theta_e
338 338 338 339 338 339 339 339 338 338 338 338 338 339 339 339 338 338 338 338 338 338 336 336 336 336 335 335 335 335 335 335 334 334 334 333 334 334 334 334 334 334 333 333 333 333 333 333 333 332 332 332 333 334 335 334 333 332 331 329 328 326 324 324 324 325 325 325 325 324 323 322 321 322 324 324 325 326 325 325 326 327 328 328 328
338 338 338 339 339 339 339 339 338 339 339 339 339 339 338 338 338 338 337 337 337 337 336 336 336 335 335 335 335 335 335 335 335 335 334 334 334 334 334 334 334 334 334 334 333 333 333 333 333 332 333 334 335 336 336 336 335 334 332 330 329 328 326 324 323 324 326 325 324 324 324 324 322 322 323 322 323 325 325 325 326 326 327 328 327
338 338 338 339 339 339 339 338 339 339 339 339 339 339 339 338 338 338 338 337 336 336 337 336 336 336 335 335 335 335 335 336 335 335 335 335 335 335 335 335 335 335 334 334 334 333 334 333 333 333 333 334 335 336 336 336 336 335 333 331 330 329 327 325 324 324 326 326 324 324 325 325 324 322 323 322 321 323 324 324 325 326 327 327 327
339 339 339 339 339 339 339 339 339 340 339 340 340 339 339 338 338 338 338 337 337 337 337 336 336 336 335 335 336 336 336 336 335 335 335 336 336 336 336 336 336 336 335 335 335 334 334 335 334 334 334 334 334 335 336 336 336 335 333 331 330 330 328 327 326 324 325 326 324 323 325 325 325 323 324 323 321 321 322 323 324 325 326 327 327
339 339 339 339 338 338 338 338 339 339 339 340 340 339 338 339 338 338 338 337 336 335 336 336 336 336 335 336 336 336 336 336 336 336 336 337 337 337 337 337 337 336 336 336 336 336 336 336 336 335 335 334 334 335 336 336 335 335 335 333 331 330 329 327 327 325 325 327 325 323 324 325 325 324 324 324 321 320 321 322 324 325 325 326 327
337 338 338 338 338 338 338 338 339 339 339 339 339 339 338 338 338 337 336 335 335 335 335 335 336 336 335 335 336 336 336 336 336 336 336 336 336 337 336 337 337 337 337 337 337 337 337 337 337 336 336 335 335 335 335 336 336 335 335 334 333 331 330 328 327 327 325 326 326 324 323 325 326 325 325 325 322 321 320 321 323 324 324 325 326
337 338 338 337 337 338 338 338 339 339 338 337 338 338 338 338 337 336 336 335 335 336 336 336 336 335 335 335 335 335 335 336 336 336 336 336 336 337 337 337 337 337 337 337 337 337 337 337 337 336 336 336 336 336 336 335 335 335 335 335 334 332 330 330 328 328 326 326 326 325 323 324 326 325 325 325 323 321 320 320 322 323 323 325 325
338 338 338 338 337 338 338 338 338 337 337 337 337 337 337 336 336 336 335 335 335 335 335 335 335 335 335 335 334 334 334 334 334 334 335 335 336 337 337 337 336 336 336 336 336 335 336 337 336 336 336 336 336 336 336 336 335 335 335 334 334 333 332 331 329 328 327 326 326 326 324 324 325 326 325 325 324 322 321 321 322 322 322 324 325
338 338 338 337 337 337 337 337 336 336 336 336 335 335 335 335 335 335 334 334 333 333 333 333 333 334 334 333 333 333 332 332 333 333 333 334 337 338 337 336 336 335 335 335 335 334 335 336 336 335 335 335 334 335 334 335 335 335 336 335 334 335 334 332 330 329 328 327 326 326 326 325 324 325 325 326 325 324 323 322 322 321 321 323 324
337 337 336 336 336 335 335 335 335 335 335 334 334 333 333 333 334 333 332 332 330 330 330 330 331 332 332 333 332 331 331 332 333 333 334 334 335 335 334 333 332 332 332 333 334 334 334 334 334 333 333 334 334 334 334 334 333 334 335 336 335 335 334 333 332 330 329 328 327 327 327 326 324 324 325 326 326 325 324 324 324 322 321 323 323
336 336 335 335 335 334 334 334 334 334 333 332 332 331 332 331 331 331 330 329 328 327 327 328 329 330 331 331 330 329 330 333 331 331 331 330 330 330 329 328 327 328 328 328 329 330 329 329 328 327 328 329 330 332 333 334 334 334 334 334 336 336 334 333 332 332 331 330 328 327 328 326 324 324 324 326 327 326 324 324 324 321 320 323 323
335 335 334 334 334 333 332 332 332 332 332 330 329 328 329 328 328 328 328 328 327 326 326 327 328 328 328 328 328 327 330 332 329 328 328 327 326 326 326 326 324 325 324 323 324 324 323 323 322 323 325 326 327 329 331 333 335 334 334 334 334 335 335 334 333 332 331 331 330 329 328 327 325 324 325 326 326 327 325 324 325 320 319 322 323
332 332 332 331 331 331 330 329 330 330 328 327 326 326 326 326 325 325 326 325 324 324 324 325 326 326 326 327 326 326 330 333 329 325 325 325 324 323 323 323 321 321 321 321 321 320 319 318 318 322 324 324 325 327 328 330 332 332 332 331 331 332 333 333 334 333 332 332 331 330 329 327 325 323 324 325 325 326 325 324 325 320 318 322 322
329 329 328 328 327 327 326 325 326 326 325 324 323 323 323 323 323 323 323 323 322 321 321 323 323 322 324 327 327 327 328 329 326 324 323 324 323 321 321 319 317 317 317 318 317 315 314 314 316 320 322 322 324 326 326 326 326 325 322 321 322 326 329 330 332 333 333 332 331 331 330 328 327 324 323 324 324 326 325 324 324 321 319 320 320
326 325 325 324 324 324 323 323 323 323 323 322 322 321 321 321 321 321 321 321 320 319 319 320 320 320 324 328 329 329 329 325 322 322 323 322 321 319 318 314 313 314 312 311 309 309 310 310 314 318 317 318 322 322 323 321 319 317 314 311 313 320 326 328 329 331 331 332 332 332 331 329 328 326 324 323 324 326 326 325 325 323 320 320 320
323 322 322 322 322 322 321 321 321 320 320 320 320 319 319 318 318 319 319 319 318 316 317 317 318 320 323 326 325 326 328 323 319 321 321 321 319 317 314 309 310 311 307 305 305 306 308 309 313 315 312 316 319 316 316 316 314 313 312 309 308 313 321 326 327 328 330 330 331 332 332 331 329 328 326 324 323 325 326 326 325 324 321 320 321
320 320 320 320 320 320 319 319 319 318 318 318 318 317 316 316 316 317 317 317 316 314 315 315 316 317 319 321 322 322 322 319 319 322 320 319 318 314 309 307 309 309 305 302 304 306 307 308 311 311 307 313 317 312 309 310 309 308 307 306 304 306 313 320 323 325 326 327 327 329 331 331 329 329 328 326 324 323 325 326 326 325 323 321 321
318 318 318 318 318 318 318 318 317 317 317 317 316 315 314 314 315 315 315 314 313 312 312 312 313 314 315 316 318 318 317 316 318 320 317 316 316 311 307 308 309 308 304 302 303 304 306 308 309 306 305 309 311 308 305 304 303 302 301 301 301 301 305 312 317 318 319 319 321 323 326 330 330 330 328 327 326 324 324 325 326 326 325 323 322
317 317 317 317 317 317 317 316 316 315 315 314 313 311 311 312 312 312 311 311 310 310 310 311 311 312 313 314 314 312 311 312 313 315 315 314 312 309 308 308 308 307 304 302 303 303 305 306 305 303 304 307 306 304 302 300 298 298 298 298 300 301 303 307 311 312 312 312 314 317 321 325 328 329 329 329 328 325 324 325 326 326 326 325 323
316 315 315 315 315 316 316 315 314 313 311 310 310 310 310 310 310 310 310 310 310 310 311 310 310 311 312 312 312 310 308 308 309 311 313 312 310 308 307 307 306 305 303 301 302 302 304 304 302 301 303 304 303 301 299 298 297 298 298 299 300 302 303 305 307 308 308 308 310 314 318 322 326 328 329 329 328 327 325 324 325 325 326 326 325
315 314 314 314 314 314 314 314 313 311 310 310 311 311 310 310 311 310 310 310 310 310 310 309 310 310 310 310 310 308 307 306 306 308 309 310 309 307 306 305 304 303 302 300 301 301 303 302 301 301 302 302 301 299 298 298 298 298 299 300 301 302 304 304 304 305 306 306 309 312 315 319 324 327 328 328 329 328 326 325 325 325 326 326 326
313 313 312 312 312 313 313 313 313 311 311 311 311 311 310 310 310 310 310 309 309 308 308 308 308 308 308 307 307 307 306 305 305 306 307 307 307 306 305 303 302 302 301 300 300 301 302 301 300 301 301 300 299 298 298 298 298 299 300 301 302 303 303 303 302 303 304 305 307 309 312 314 319 324 327 328 328 328 327 326 325 325 326 326 326
311 311 310 311 312 312 312 312 311 311 311 311 311 311 310 309 309 309 308 308 308 308 307 307 306 306 305 305 305 305 304 304 304 304 304 304 304 303 302 301 301 301 300 299 299 299 301 300 299 300 300 299 299 298 298 298 297 298 300 302 302 302 302 301 301 302 303 304 305 307 310 312 314 318 323 325 327 329 329 327 326 326 326 326 326
309 309 309 310 311 311 311 310 309 309 309 310 310 310 309 308 308 307 307 307 307 306 306 305 304 304 304 303 303 303 302 301 301 300 301 301 301 301 300 300 300 300 298 298 298 298 300 299 298 299 298 298 298 298 297 297 297 298 300 302 301 300 300 300 301 301 301 303 304 306 308 309 312 315 319 323 326 328 329 329 327 326 327 326 326
308 308 308 309 309 309 309 308 307 307 308 309 308 308 308 307 306 306 306 306 306 305 304 304 303 303 303 302 302 301 300 299 297 298 298 299 299 299 299 299 299 298 298 297 297 298 298 298 297 298 298 298 297 297 297 297 297 299 300 300 299 299 299 300 301 300 300 302 303 305 306 307 310 313 317 322 325 327 328 329 328 327 327 326 326
308 308 307 307 307 307 307 307 306 306 306 307 306 306 306 306 306 305 305 305 305 305 304 303 302 302 302 301 301 300 298 296 296 296 297 297 298 298 298 297 297 297 297 297 297 297 297 297 297 297 297 297 297 296 297 297 297 298 300 299 298 299 299 299 300 300 300 300 301 302 304 306 309 311 313 318 323 325 326 328 328 327 327 326 326
306 307 307 307 306 306 306 306 306 305 305 305 305 306 305 305 305 305 305 305 305 304 303 302 302 301 301 301 300 298 296 295 296 296 296 296 296 297 297 297 296 296 296 296 296 296 297 297 297 297 297 296 296 296 296 297 297 298 299 299 298 298 298 299 299 300 299 299 300 301 303 305 308 309 309 311 317 321 322 324 327 328 327 326 325
305 305 306 306 306 305 305 305 304 304 304 304 304 305 305 305 305 305 304 304 304 303 302 302 301 301 301 300 298 296 295 296 296 296 296 296 296 296 296 296 296 296 296 296 296 296 296 296 296 296 296 296 296 296 296 296 297 298 298 298 298 298 298 298 299 299 298 298 299 301 302 303 305 307 306 307 312 316 317 320 323 326 328 326 325
305 305 304 305 305 305 305 304 304 304 304 304 304 304 304 304 304 303 303 303 303 302 302 301 301 300 299 297 296 295 296 296 296 296 295 295 295 295 295 296 296 296 295 296 296 296 296 296 296 296 296 296 296 296 296 296 296 297 297 297 297 297 298 298 298 298 298 298 298 299 300 301 303 305 304 305 309 312 313 316 318 321 326 327 326
305 304 304 304 304 304 304 304 304 303 303 303 304 304 304 304 303 303 302 302 302 302 301 301 300 300 298 296 295 296 296 296 295 294 294 294 294 295 295 295 295 295 295 295 295 296 296 296 296 296 296 296 296 296 296 296 296 297 297 297 297 297 298 298 297 298 298 298 298 299 299 299 300 302 302 303 306 308 310 312 315 318 322 325 326
304 304 303 303 303 303 303 304 304 304 303 303 303 304 304 304 303 303 302 302 302 301 301 300 299 299 298 296 296 296 296 295 293 292 293 294 294 294 295 295 295 295 295 295 295 295 296 296 295 295 295 296 295 295 296 296 296 297 296 297 297 297 297 297 297 297 297 297 298 298 297 297 298 300 301 302 304 306 308 309 311 314 318 322 325
304 303 303 302 302 302 302 303 303 304 304 303 303 304 304 303 303 303 302 302 301 301 300 299 299 298 297 296 296 296 296 294 293 292 293 294 294 295 295 295 295 295 295 295 295 295 295 295 295 295 295 295 295 295 295 296 296 296 296 296 296 296 296 296 296 296 296 297 297 297 297 297 298 299 299 300 301 303 305 306 307 311 316 319 323
303 302 302 301 301 301 301 302 303 303 304 304 303 304 304 303 303 303 302 301 301 300 300 299 299 298 297 297 297 296 295 294 293 293 293 294 295 295 295 295 295 295 295 295 295 295 295 295 295 295 295 295 295 295 295 295 295 295 295 295 295 295 296 296 296 296 296 296 296 296 296 297 297 297 298 298 299 300 302 303 305 310 315 318 320
302 301 300 299 299 298 299 300 302 303 304 304 303 303 303 303 302 302 302 301 301 300 299 299 298 297 297 297 297 296 295 295 294 293 293 293 294 295 295 295 295 295 295 295 295 295 295 295 295 295 295 295 295 295 295 295 295 295 296 296 296 296 296 296 296 296 295 295 296 296 296 296 296 296 296 297 298 299 300 302 307 311 314 316 318
302 301 299 297 296 295 296 298 300 303 304 304 303 303 303 302 302 302 301 301 300 300 299 298 298 297 297 297 296 296 295 295 294 293 293 293 293 294 294 294 295 295 295 295 295 295 295 295 295 295 295 295 295 295 295 295 295 295 295 296 295 296 295 295 295 295 295 295 295 296 295 296 296 295 296 296 297 298 300 304 308 310 311 314 317
302 300 298 295 294 293 294 296 299 302 303 303 303 303 303 302 302 301 301 300 300 299 299 298 297 297 297 297 296 296 295 295 294 293 293 293 293 293 293 294 294 295 295 295 295 295 295 295 295 295 294 294 294 295 295 295 295 295 295 295 295 295 295 295 295 295 295 295 295 295 295 295 295 295 295 296 296 298 301 304 306 307 308 310 314
301 298 295 293 293 293 294 295 299 302 303 303 303 303 302 302 302 301 300 300 299 299 298 298 297 297 297 297 296 296 295 295 294 293 293 293 293 293 293 293 294 294 294 294 294 295 295 295 295 294 294 294 294 294 294 295 295 295 295 295 295 295 295 295 295 295 295 295 295 295 295 295 295 295 295 295 296 298 301 303 304 305 305 306 309
299 296 294 293 293 294 295 296 299 301 303 303 302 302 302 302 301 300 300 300 299 299 298 298 297 297 297 297 296 296 295 294 293 293 293 293 293 293 293 293 293 293 293 294 294 294 294 294 294 294 294 294 294 294 294 295 295 295 295 295 295 295 295 295 295 295 295 295 295 295 295 295 295 295 295 295 296 299 300 301 301 302 303 304 306
298 296 293 293 293 294 295 297 299 300 302 302 302 302 302 301 300 299 299 299 299 298 298 297 297 297 296 296 296 296 294 293 293 293 293 293 293 293 293 293 293 293 293 293 294 294 294 294 294 294 294 294 294 294 294 294 295 295 295 295 295 295 295 295 295 295 295 295 295 295 295 295 295 295 295 295 296 297 297 297 298 299 300 302 304
298 296 293 293 294 295 296 297 298 300 301 301 301 302 301 301 300 300 299 299 299 298 298 297 297 297 296 297 296 295 294 293 293 293 293 293 293 293 293 293 293 293 293 293 293 294 294 294 294 294 294 294 294 294 294 294 295 295 295 295 295 295 295 295 295 295 295 295 295 295 295 295 295 295 295 295 295 295 295 296 297 298 299 301 303
298 295 292 293 294 295 296 297 298 299 300 301 301 301 301 301 300 300 299 299 298 298 298 297 297 297 297 297 296 294 294 293 293 293 293 293 293 293 293 293 293 293 293 293 293 293 293 293 294 294 294 294 294 294 294 294 295 295 295 295 295 295 295 295 295 295 295 295 295 295 295 295 295 295 295 295 295 295 295 295 296 297 298 300 302
296 293 293 294 294 295 296 297 297 298 299 299 300 300 300 300 300 300 299 299 298 298 298 298 297 297 297 296 295 294 294 294 293 293 294 294 293 294 294 294 294 293 293 293 293 293 293 293 293 293 293 293 293 294 294 294 295 295 295 295 295 295 295 295 295 295 295 295 295 295 295 295 295 295 295 295 295 295 295 295 296 298 298 300 301
293 292 293 293 294 295 296 296 297 298 298 298 299 299 299 300 299 299 299 298 297 297 298 298 297 297 296 296 295 295 294 294 294 294 294 294 294 294 294 294 294 293 293 293 293 293 293 293 293 293 293 293 293 294 294 294 294 294 294 294 294 294 295 295 295 295 295 295 295 295 295 295 295 295 295 294 295 295 295 295 296 297 299 299 301
291 292 292 292 293 294 295 296 296 297 297 298 298 299 299 299 299 299 299 298 298 298 298 298 297 296 296 295 295 295 295 294 294 294 294 294 294 294 294 294 293 293 293 293 293 293 293 293 293 293 293 293 293 294 294 294 294 294 294 294 294 294 294 295 295 295 295 294 294 295 295 294 294 295 295 294 295 295 295 296 297 298 299 300 301
292 291 291 291 292 292 293 294 295 296 297 297 298 298 298 298 298 298 298 298 298 298 298 298 297 296 296 295 296 296 295 294 294 294 294 294 294 294 294 294 294 293 293 293 293 293 293 293 293 293 293 293 293 293 294 294 294 294 294 294 294 294 294 294 294 294 294 294 294 294 294 294 294 294 295 295 295 295 295 296 297 298 299 300 301
296 294 292 291 291 291 291 292 292 294 295 296 297 298 297 297 297 297 297 297 297 298 298 297 297 296 295 296 296 295 294 294 294 294 294 294 294 294 294 294 293 293 293 293 293 293 293 293 293 293 293 293 293 293 293 293 293 293 293 293 294 294 294 294 294 294 294 294 294 294 294 294 294 295 295 295 295 295 296 297 298 299 300 301 302
300 299 297 295 293 291 291 291 291 291 292 293 295 296 297 296 295 293 294 296 297 297 297 297 297 296 296 296 296 295 294 294 294 294 294 294 294 293 293 293 293 293 293 293 293 293 293 292 292 292 292 292 292 293 293 293 293 293 293 293 293 294 294 294 294 293 294 294 294 294 294 294 294 295 295 295 295 296 297 297 298 299 300 300 301
301 301 300 299 296 293 291 291 290 290 290 291 292 293 294 294 292 291 291 294 296 297 296 297 296 296 296 296 296 295 294 294 294 294 294 294 294 293 293 293 293 293 293 293 293 293 292 292 292 292 292 292 292 292 293 293 293 293 293 293 293 293 293 293 293 293 293 293 294 294 294 294 294 295 295 295 296 296 297 297 298 299 300 300 302
301 301 301 300 296 294 293 292 291 291 290 290 290 290 291 291 291 290 291 293 295 296 296 296 296 295 295 295 295 294 294 294 294 294 294 294 294 293 294 294 293 293 293 293 292 292 291 292 292 292 292 292 292 292 293 293 293 293 293 293 293 293 293 293 293 293 293 293 293 293 294 294 294 294 295 295 296 296 297 298 299 300 302 303 305
301 301 301 299 295 294 295 294 293 293 291 290 290 290 290 290 290 290 291 293 294 295 295 295 294 294 294 294 294 294 294 294 294 294 294 294 294 294 294 293 293 293 293 292 292 291 291 292 292 292 292 292 292 292 293 293 293 293 293 293 293 292 292 292 292 292 292 292 293 293 294 294 294 295 295 296 296 297 298 299 300 301 304 306 307
302 301 300 297 295 296 297 296 296 294 293 291 290 290 290 290 290 291 292 293 294 294 294 294 294 294 294 294 294 294 294 294 294 294 294 294 294 294 294 293 293 293 292 292 291 291 291 291 291 291 291 292 292 292 293 293 293 293 293 293 293 292 292 292 292 292 292 292 293 293 293 294 294 294 295 296 297 297 298 299 301 303 305 305 305
Wind_Speed
2 1 1 1 1 1 3 4 4 4 4 5 4 4 4 5 6 6 7 6 7 8 8 8 8 9 9 10 11 11 11 13 13 14 15 16 16 16 15 15 16 17 18 18 18 18 18 19 18 18 17 17 16 15 15 15 16 17 15 14 11 9 8 9 8 8 8 8 8 7 6 7 8 9 9 10 11 9 9 8 7 8 8 8 7
5 4 3 2 1 2 2 3 4 4 4 4 4 5 5 5 5 5 5 6 7 8 8 8 8 8 9 10 11 11 11 12 12 12 12 13 15 16 15 16 16 17 18 18 18 17 18 19 18 19 18 18 16 15 15 16 18 19 17 16 14 11 10 9 9 9 9 9 10 9 8 7 7 8 9 11 12 11 11 10 8 9 9 9 8
8 6 4 3 2 2 2 2 3 3 4 5 4 5 5 5 5 4 5 6 7 8 8 9 8 8 9 10 11 12 13 13 12 11 11 11 12 13 14 14 15 15 17 17 17 17 17 17 17 17 18 18 17 17 17 17 18 20 19 18 16 14 12 10 9 9 10 10 11 11 9 9 7 7 8 9 12 12 13 13 10 11 11 10 10
10 7 4 3 2 1 0 0 1 2 4 4 4 4 4 4 4 4 5 7 8 8 8 9 9 9 9 10 11 12 13 14 14 13 12 12 12 13 14 14 14 14 15 16 16 16 16 16 16 16 17 18 18 18 18 17 18 19 19 19 18 16 14 12 10 10 11 11 11 12 11 10 9 9 8 9 10 12 14 15 12 12 13 12 11
10 8 5 2 1 1 1 2 1 2 2 3 4 4 3 3 3 4 6 7 8 8 8 9 9 9 9 10 10 11 12 13 14 14 14 14 14 14 15 15 14 14 14 15 15 16 16 16 17 16 16 17 18 17 17 18 18 17 18 19 20 19 16 14 12 11 11 11 12 13 12 12 11 10 10 9 10 11 13 16 15 14 15 13 13
8 9 7 3 0 1 1 2 1 2 1 3 4 3 3 3 4 5 6 7 8 8 9 9 9 10 10 11 11 12 12 13 13 14 14 14 15 15 15 16 16 15 15 15 16 16 16 17 17 17 16 16 18 17 17 18 19 19 18 18 20 21 19 16 15 13 13 12 12 13 14 13 12 12 12 11 11 10 12 15 16 16 15 14 13
7 9 9 5 2 2 3 3 3 2 1 1 2 2 2 3 5 6 6 7 7 7 8 9 9 10 10 11 11 12 12 13 13 13 14 14 14 14 14 14 14 15 15 16 16 16 17 17 17 16 16 16 17 17 17 17 19 21 20 19 20 21 20 19 18 16 15 14 13 14 15 15 14 13 14 13 12 11 12 15 17 18 16 14 14
10 10 10 7 5 5 5 5 4 3 3 2 2 2 3 4 5 6 7 8 8 8 8 9 10 10 11 10 10 10 11 12 13 13 13 13 14 14 14 14 14 15 16 17 18 18 18 17 16 16 16 16 17 17 17 17 18 19 20 20 20 21 20 21 21 19 18 16 15 15 16 17 16 15 15 15 14 13 13 14 16 18 16 15 14
14 12 11 9 8 8 7 6 4 4 4 4 5 5 5 5 5 6 7 8 9 9 9 10 11 11 11 10 10 10 11 13 13 12 12 12 13 14 14 15 16 16 18 18 19 20 18 17 16 17 18 19 19 19 18 18 18 18 19 20 21 22 21 21 22 23 22 20 18 17 16 18 18 17 17 16 15 14 14 14 15 17 17 15 15
14 12 11 10 8 7 7 6 5 5 5 5 6 6 6 5 5 6 7 8 9 11 12 12 11 12 11 11 10 10 10 11 10 10 10 10 11 11 12 14 15 16 17 18 17 17 17 17 19 20 21 21 22 22 22 20 19 18 18 20 21 23 23 22 22 23 25 23 21 19 17 19 20 19 18 17 16 16 15 15 15 16 18 17 16
11 10 9 8 7 6 6 5 5 5 5 5 6 6 6 6 6 5 6 7 9 11 12 12 12 12 12 11 10 8 7 7 10 13 13 14 13 12 13 15 18 19 20 20 18 18 18 18 20 22 22 21 21 21 22 23 22 20 19 18 19 22 25 24 23 22 24 25 23 21 20 20 21 21 21 19 18 17 16 16 15 16 18 18 17
10 8 7 6 4 4 4 5 4 5 5 5 6 7 6 7 7 5 6 6 9 12 13 14 13 13 13 11 8 7 3 5 9 14 15 16 16 15 15 17 20 21 22 22 22 22 22 22 24 26 27 26 23 19 18 20 23 24 23 23 22 23 25 25 25 23 23 26 25 22 22 22 21 22 22 21 20 19 18 18 17 16 18 19 18
9 7 5 4 3 2 2 4 3 3 3 4 5 6 6 6 6 6 7 7 10 14 15 14 12 13 13 12 11 7 1 1 6 14 17 17 17 18 18 20 22 22 22 22 23 24 25 25 26 27 29 30 28 23 18 18 20 21 21 23 23 22 22 23 26 25 23 25 26 24 23 23 22 23 23 23 23 22 20 19 18 17 19 20 19
8 7 5 4 4 4 3 4 3 3 3 4 4 5 6 6 6 6 6 8 11 15 17 13 11 11 9 10 12 7 1 2 4 13 17 16 17 19 20 23 24 23 23 23 24 25 26 26 26 26 28 29 29 27 23 23 23 22 22 23 24 23 20 19 20 22 24 24 24 25 27 26 25 24 25 25 25 24 22 21 20 19 20 20 20
8 6 6 6 5 5 5 4 4 4 3 4 5 6 7 8 8 7 6 7 11 15 18 17 15 11 4 3 6 5 4 3 9 15 14 14 17 19 21 24 24 23 24 25 26 27 26 26 26 26 27 27 26 26 25 24 23 22 23 25 26 25 21 17 16 15 20 24 24 27 29 30 30 28 27 27 27 26 25 23 23 22 21 22 22
8 7 6 6 6 5 6 6 6 5 4 5 7 8 9 9 10 8 7 9 12 15 17 19 20 13 5 2 2 3 2 6 16 14 9 13 15 18 23 25 24 23 26 28 28 27 26 27 27 25 25 24 23 24 24 23 24 23 23 25 26 26 23 18 17 16 15 19 22 26 29 30 31 32 31 29 29 28 27 26 25 24 23 23 24
9 8 7 7 6 7 8 8 8 7 6 8 9 10 10 11 11 10 11 11 12 14 15 18 22 18 12 4 2 3 2 8 13 7 6 12 12 17 24 25 23 23 28 30 29 28 27 28 27 25 26 24 22 25 26 26 26 27 26 26 26 25 23 21 19 19 19 19 19 20 26 29 31 33 33 32 31 30 30 30 28 26 26 25 26
10 9 8 8 8 9 9 9 10 10 9 9 10 11 11 12 12 12 13 12 12 16 17 17 19 21 19 14 9 7 4 8 6 4 9 8 7 17 24 24 21 22 29 31 30 29 27 28 27 26 27 25 24 27 29 29 29 29 28 27 27 26 24 22 21 21 22 22 20 20 22 26 31 34 35 33 32 32 32 32 31 29 27 28 27
10 10 9 8 9 10 10 11 11 11 10 10 12 13 15 16 16 17 19 18 18 22 21 18 19 20 20 19 17 17 14 12 5 4 7 4 8 18 21 22 19 20 29 30 29 28 26 28 27 27 28 25 26 29 31 31 31 30 28 27 28 27 25 24 22 22 24 24 23 23 23 22 24 29 35 36 34 34 33 33 34 32 30 30 29
9 9 9 8 9 10 11 12 12 13 13 15 18 19 20 20 21 22 23 23 23 23 21 20 19 17 17 18 17 18 20 19 13 8 4 4 10 15 19 23 16 17 27 29 28 26 25 27 26 27 28 26 27 31 32 33 33 32 30 29 29 28 26 26 25 24 24 25 24 25 25 22 20 22 29 37 37 35 35 35 35 34 33 32 31
9 9 9 9 9 11 11 12 13 15 17 19 20 20 20 20 20 21 22 23 22 21 21 21 20 17 17 17 16 17 19 20 20 15 8 5 6 9 20 25 17 17 25 28 27 23 22 24 25 26 26 26 29 31 33 35 35 34 33 30 29 29 29 28 27 27 26 26 25 25 26 24 20 19 22 30 37 37 36 37 37 36 35 34 33
10 10 10 10 11 12 13 14 14 16 17 18 18 18 19 19 19 20 21 22 21 21 22 23 23 23 22 21 18 17 15 16 17 16 11 7 5 7 16 21 17 18 25 28 25 21 20 22 25 26 25 26 30 33 35 36 35 34 33 32 31 31 31 29 29 28 28 27 26 25 26 26 24 20 20 22 30 38 39 38 38 38 37 37 35
11 12 12 13 14 15 16 16 16 16 17 17 17 17 18 19 19 20 20 21 20 21 23 23 23 24 24 24 22 20 17 14 15 15 11 7 6 6 12 18 16 19 26 26 23 19 17 21 26 26 25 28 31 34 36 36 36 34 33 33 33 32 31 30 30 30 30 28 26 26 26 25 26 23 21 21 22 31 40 40 39 39 39 38 38
14 14 15 15 16 17 17 17 17 17 17 17 17 16 17 18 18 19 19 20 20 20 22 22 22 23 24 24 23 24 23 20 18 18 15 11 8 5 10 16 12 17 27 26 22 19 14 19 27 26 26 29 32 35 36 37 37 34 32 33 34 33 32 31 31 32 31 29 27 27 27 26 26 26 24 22 20 22 34 42 40 39 41 40 39
15 16 16 16 17 17 18 18 18 18 17 17 17 17 18 19 19 19 19 20 20 21 23 23 22 22 23 24 24 24 24 22 21 21 18 16 14 9 11 14 10 15 25 24 24 20 14 21 28 26 28 31 34 37 36 37 37 34 32 34 35 35 34 33 33 33 32 30 30 28 27 27 27 25 25 22 19 18 23 38 43 41 42 42 40
16 16 16 17 18 18 18 18 18 17 17 17 18 18 19 19 20 20 20 19 19 20 22 22 22 22 22 23 24 24 23 22 23 22 21 18 16 12 11 12 10 13 19 22 23 19 17 26 29 25 28 33 36 38 38 37 36 34 33 34 36 36 35 34 34 34 33 32 31 28 27 29 27 25 25 22 19 17 18 28 42 45 43 43 42
15 16 15 16 17 17 17 17 17 17 17 17 17 18 18 19 20 21 20 19 18 20 20 21 22 21 21 22 23 22 22 23 23 22 21 19 18 16 13 9 8 9 12 17 20 17 19 29 29 25 29 35 37 38 38 38 37 35 34 34 36 36 35 35 35 35 35 33 30 27 29 30 27 26 26 24 21 18 18 21 32 43 46 45 45
16 15 15 16 16 17 17 17 17 17 17 17 17 18 18 19 19 19 19 18 18 19 20 21 21 21 21 21 21 22 22 22 23 22 22 20 19 18 17 12 8 6 7 10 13 14 21 29 28 27 32 35 36 37 38 38 38 35 35 36 36 36 35 35 36 36 35 35 32 29 31 32 29 28 28 26 24 21 19 20 24 34 45 49 47
17 16 16 16 16 17 17 18 17 17 18 17 17 18 18 18 19 18 18 17 18 19 19 20 20 20 21 21 21 22 22 22 23 22 21 20 19 18 17 16 11 7 5 7 8 13 23 29 27 30 35 36 35 36 36 37 37 35 35 37 36 36 36 36 36 36 35 35 34 32 33 33 30 29 28 27 24 23 22 20 20 25 38 50 50
17 16 16 16 15 15 16 17 18 18 18 18 18 18 18 18 18 18 18 16 17 18 18 18 19 19 20 20 21 22 21 22 23 24 22 20 19 18 16 16 14 10 7 7 7 12 21 27 29 32 37 37 36 36 35 35 35 34 35 37 37 36 36 36 36 35 35 35 34 34 35 34 31 29 29 28 26 25 25 23 21 20 27 43 53
16 15 14 14 14 14 15 16 17 18 18 18 18 18 17 17 16 17 16 15 16 17 17 17 17 17 18 19 20 21 20 22 25 26 25 22 19 18 17 16 16 13 11 8 7 12 19 23 27 33 34 35 36 36 36 34 32 33 35 36 36 37 37 36 36 35 35 35 33 34 36 34 31 30 30 29 29 28 26 25 24 21 20 31 49
14 13 13 12 12 13 14 15 16 16 17 17 17 17 17 16 15 15 15 14 15 16 16 16 16 16 17 17 18 18 19 22 26 27 27 23 19 18 17 17 16 15 14 11 8 12 18 21 25 30 31 33 34 35 35 35 33 33 33 34 37 38 38 38 36 35 35 34 33 35 36 35 33 32 31 31 30 30 28 26 27 24 20 23 37
13 12 11 10 10 10 12 13 14 15 16 16 16 16 16 16 15 14 13 13 14 14 14 15 15 16 15 15 15 16 19 22 25 26 25 23 19 17 17 17 18 17 16 15 12 12 18 22 24 26 28 30 31 32 33 34 35 35 34 34 36 37 38 38 37 36 36 35 36 36 36 35 34 34 34 33 32 30 29 26 26 25 22 20 26
12 10 10 9 8 9 10 12 14 14 15 15 16 15 16 15 14 13 12 12 12 12 12 13 13 14 14 13 13 15 18 22 23 23 23 23 20 17 17 17 19 19 18 18 16 15 18 23 25 26 27 27 28 30 32 33 35 37 37 37 36 35 36 37 38 39 38 37 37 37 37 36 35 37 37 35 32 29 27 25 23 24 23 20 21
12 10 8 8 8 9 10 12 14 14 15 15 15 15 15 15 14 13 11 10 10 11 11 11 11 11 11 11 12 14 17 21 22 21 20 21 21 19 18 17 18 20 20 19 19 18 19 22 25 26 27 28 28 29 31 32 33 35 38 39 38 37 37 37 38 39 39 39 39 38 38 37 37 38 38 36 33 28 24 23 22 23 23 20 18
12 10 7 7 8 10 11 13 15 15 15 14 14 14 14 13 13 12 11 9 9 10 10 10 10 9 9 10 11 13 17 20 21 21 19 19 20 20 19 19 18 19 21 21 21 20 21 22 25 27 28 28 28 29 31 31 31 33 36 38 39 39 38 37 37 39 40 40 39 38 38 37 37 38 37 36 33 27 23 23 24 24 24 22 18
11 9 8 8 10 11 12 13 15 16 15 14 14 13 12 11 12 12 11 9 9 9 8 9 10 8 7 8 10 12 16 19 20 20 18 18 19 20 20 21 20 21 22 23 24 23 22 23 25 28 28 28 28 30 31 30 31 33 33 36 38 39 40 40 39 40 40 40 39 39 39 38 37 36 34 34 32 26 24 25 26 27 26 24 20
12 10 10 10 11 12 13 14 15 15 14 13 13 12 11 12 12 11 10 8 8 8 8 8 8 7 7 8 9 11 15 18 18 18 17 18 19 21 22 23 23 24 25 26 26 25 24 24 26 27 28 28 29 29 30 31 31 31 32 34 36 38 40 41 41 41 40 39 39 39 39 38 37 34 32 31 29 26 27 29 30 30 28 25 23
11 10 10 11 12 13 13 14 15 15 14 13 13 12 11 11 11 10 9 8 8 7 6 7 6 8 8 6 7 11 15 16 16 16 16 17 19 22 23 25 26 26 26 27 27 26 25 25 25 26 27 28 28 30 31 32 30 29 29 31 31 35 40 40 41 42 41 40 40 39 38 36 34 32 30 30 30 30 34 35 33 31 29 26 23
11 10 10 11 13 14 14 15 15 14 14 13 12 11 10 9 9 8 7 7 7 7 5 5 4 6 7 5 7 12 15 15 15 15 16 18 20 23 25 27 28 28 28 28 28 27 26 25 25 26 27 27 28 30 31 30 27 27 29 30 29 31 37 40 39 38 39 41 41 39 37 33 32 33 32 33 34 35 36 36 33 30 28 26 24
11 10 10 12 13 14 15 15 15 14 14 13 11 10 9 8 8 7 6 6 6 5 4 3 2 3 4 4 8 13 14 15 15 16 17 19 21 25 28 29 30 29 28 28 28 27 25 24 25 26 25 25 27 29 29 27 27 29 32 32 30 30 34 39 39 36 34 36 38 37 37 35 35 37 36 35 36 36 36 36 34 31 27 25 24
12 11 12 13 14 14 14 14 14 14 13 12 11 9 8 8 7 5 5 6 6 4 2 2 1 2 3 3 9 13 15 16 17 17 18 21 23 26 29 30 31 30 29 28 28 27 25 23 24 26 24 24 27 28 28 29 31 32 33 32 31 32 32 32 34 34 29 27 31 36 40 38 34 36 37 36 37 37 37 38 35 31 27 24 23
14 14 14 15 14 13 13 13 13 13 12 11 10 8 7 6 4 4 5 6 5 6 3 1 2 3 3 3 11 15 17 17 17 18 20 24 26 28 29 29 30 29 29 29 29 29 27 25 26 27 25 25 29 30 30 32 33 33 33 33 32 32 30 23 22 27 26 26 30 36 41 39 31 32 36 36 36 37 37 37 35 30 27 24 22
16 17 16 15 15 13 13 13 12 12 11 9 8 7 6 5 4 4 5 5 4 6 5 1 3 4 2 5 13 17 19 18 17 20 24 27 29 29 29 29 30 28 27 27 28 30 29 27 27 28 28 28 30 31 32 34 36 35 35 34 31 30 30 24 22 27 31 32 31 32 37 39 30 29 35 36 36 37 37 36 33 29 26 23 21
17 18 17 16 15 14 13 12 12 11 10 8 7 6 5 4 3 2 3 4 4 4 5 3 4 5 1 7 13 18 18 17 19 23 27 30 31 30 30 30 30 28 27 28 28 29 30 29 29 29 32 32 31 32 36 37 38 38 36 34 33 31 30 28 29 34 37 36 33 29 33 38 31 27 34 36 34 35 35 35 33 30 27 25 22
16 17 17 16 16 15 13 12 12 10 9 7 6 5 4 3 2 2 2 1 4 4 4 4 4 3 2 8 14 17 17 18 21 25 29 31 32 31 30 30 29 29 29 30 30 30 30 30 31 32 35 36 34 36 39 40 39 39 36 36 37 36 35 35 37 39 38 35 33 26 25 33 31 26 31 35 33 34 34 34 33 31 29 27 25
15 14 13 13 13 14 14 13 13 12 10 7 5 4 3 2 1 0 1 2 3 5 6 5 4 1 4 9 14 17 18 20 23 26 29 30 29 29 29 28 28 30 31 31 31 32 32 32 33 34 36 37 36 37 40 42 41 40 38 39 41 41 40 37 35 36 33 30 29 23 20 29 30 25 29 34 32 32 32 32 33 33 31 30 27
15 13 12 10 10 12 13 13 13 13 11 8 5 3 2 1 1 3 4 3 4 5 7 7 5 3 4 8 13 16 19 21 24 25 26 26 26 28 30 29 29 31 32 31 31 32 33 34 34 36 37 37 36 37 40 42 42 42 42 41 40 38 35 29 27 30 28 24 23 21 20 28 29 24 27 32 30 30 33 33 33 33 31 30 27
17 15 12 11 10 10 12 12 13 13 12 9 7 5 5 5 5 6 6 4 5 6 7 6 5 4 4 7 12 16 20 23 24 24 23 23 25 28 30 31 31 32 32 33 33 34 34 34 35 36 37 37 36 37 40 41 42 43 42 38 37 35 29 20 18 23 25 23 22 21 21 26 28 24 26 30 29 29 32 33 32 29 26 23 21
18 16 13 12 12 11 10 10 10 11 11 9 8 7 7 8 8 8 7 6 6 6 6 5 4 4 6 9 12 17 21 23 22 22 22 23 25 28 30 31 32 32 32 34 36 36 35 35 36 37 38 37 36 37 40 41 42 42 39 37 38 36 30 23 19 23 25 22 18 17 19 23 25 22 23 25 24 26 29 31 29 25 20 18 17
18 16 15 14 14 12 10 8 7 8 10 9 8 7 8 9 9 8 7 8 9 8 7 6 5 6 9 11 14 18 22 21 19 21 23 24 26 28 29 31 31 31 32 34 35 36 36 36 38 39 39 38 37 37 40 43 42 41 38 37 38 36 33 30 28 23 17 13 13 13 16 21 22 22 20 15 13 18 24 23 21 20 19 19 19
Wind_Direction
98 52 69 52 10 358 20 18 6 355 0 4 2 356 350 357 358 358 356 345 339 335 332 336 340 340 335 332 327 319 314 310 309 308 304 301 302 303 302 303 305 305 305 305 304 302 300 297 295 293 290 289 284 273 267 265 264 268 272 273 275 278 270 253 240 223 224 236 232 231 224 216 216 216 221 216 212 221 223 222 223 215 197 187 194
90 69 62 62 30 348 16 24 10 5 11 7 353 339 336 345 345 345 343 329 324 324 326 331 338 340 333 328 324 321 320 319 316 315 313 310 307 306 305 305 305 308 308 307 306 303 302 301 297 294 291 288 283 272 264 260 261 265 267 268 270 272 270 261 245 225 220 233 240 237 229 224 223 218 223 221 215 223 226 221 226 227 208 191 199
103 82 64 51 8 337 5 14 14 10 4 360 346 332 335 341 332 328 330 325 323 321 323 327 333 338 333 328 325 321 320 321 321 318 318 316 314 313 312 310 308 310 311 310 309 306 306 306 303 298 293 288 284 279 272 265 261 263 266 265 266 267 267 263 251 237 224 227 237 239 233 230 231 224 225 223 217 223 225 218 222 232 221 202 204
114 103 90 60 14 333 322 67 55 5 348 341 326 315 322 331 326 323 323 321 322 318 316 319 324 327 327 326 324 321 320 319 316 313 314 314 313 312 314 315 314 314 312 312 312 310 309 310 308 305 299 293 287 282 277 271 263 260 263 264 264 264 264 262 254 247 233 224 231 237 237 234 233 229 225 229 224 224 224 215 215 230 229 215 209
125 118 113 72 340 263 182 165 113 5 329 295 294 302 306 316 326 327 321 320 323 324 322 320 320 319 319 321 321 321 321 319 318 314 313 314 313 310 311 313 315 316 315 316 317 316 314 312 311 308 305 300 293 287 277 271 268 262 257 257 262 262 260 260 255 253 242 228 230 234 236 234 233 231 227 231 230 226 224 212 211 227 231 224 216
134 125 115 92 332 157 142 146 88 38 335 284 293 311 311 320 331 328 328 334 337 343 341 334 327 322 318 318 316 315 315 316 318 316 315 315 314 314 313 313 315 317 319 320 319 318 316 316 317 314 311 308 303 297 284 274 271 268 260 252 256 258 258 259 254 253 248 236 232 232 234 233 231 231 229 230 230 227 222 211 210 223 229 225 221
111 103 103 108 133 126 136 136 106 73 32 321 305 318 333 346 343 337 340 345 346 350 349 341 332 325 322 319 316 313 312 314 317 317 318 318 317 318 320 321 322 322 322 321 319 318 317 317 319 319 317 313 310 306 300 289 278 274 269 258 253 253 256 259 254 250 248 242 234 232 233 233 230 230 230 228 227 225 221 213 212 221 227 224 220
104 101 110 126 129 115 111 111 101 75 59 42 11 11 16 13 10 1 359 0 354 347 342 336 330 326 324 320 318 316 316 320 321 319 317 317 321 323 326 329 328 327 326 324 322 320 318 315 315 318 318 315 311 307 306 300 289 280 273 264 254 249 253 254 252 249 247 247 241 234 232 232 229 227 230 231 227 223 221 216 214 220 226 225 221
116 116 121 123 116 107 98 92 83 61 53 41 32 30 21 21 27 22 20 16 3 348 338 334 330 323 320 319 318 320 326 331 329 327 323 323 328 331 334 336 335 335 333 330 327 325 322 318 316 316 315 313 311 307 304 302 298 288 274 267 259 255 255 253 252 250 247 249 245 235 229 229 229 225 227 231 228 223 220 219 216 218 223 224 221
119 120 118 112 106 100 91 81 66 53 44 34 32 26 21 21 24 32 32 20 8 355 341 335 329 321 318 318 318 324 340 354 3 7 6 4 2 360 359 1 2 0 357 351 344 341 339 334 332 331 326 320 316 310 304 299 299 297 285 275 264 258 259 255 251 248 246 248 245 236 230 229 229 226 224 227 228 224 220 219 217 218 220 221 219
118 120 118 110 100 84 72 59 43 33 23 18 16 9 10 12 11 21 24 17 7 354 343 334 327 320 318 315 316 332 2 38 41 40 41 38 33 27 24 24 24 25 23 20 17 19 16 7 4 5 2 351 339 326 313 303 297 297 295 287 273 262 263 259 251 249 247 246 246 239 232 231 229 227 225 224 225 225 222 218 219 221 217 216 218
109 112 113 110 100 71 53 44 17 348 349 3 12 6 358 360 2 0 357 356 352 347 343 336 326 321 319 313 315 333 25 78 46 41 41 35 32 27 25 25 24 25 25 25 26 29 28 23 21 24 23 17 7 354 338 324 310 301 297 295 286 272 267 258 251 257 250 241 243 238 230 231 229 227 226 225 224 223 222 219 220 221 213 211 217
101 100 101 103 105 97 69 59 31 351 10 26 25 13 359 357 2 4 358 357 1 358 350 342 339 337 329 324 328 333 123 156 21 31 29 24 23 19 18 18 17 18 15 15 18 18 19 19 22 28 28 23 20 15 9 6 352 334 323 318 314 302 287 267 257 260 253 244 246 240 231 231 230 229 227 226 226 223 220 218 219 217 211 211 214
101 102 100 94 90 89 76 69 70 64 68 57 38 25 15 8 3 11 21 25 27 19 8 5 4 353 334 330 337 339 326 240 348 18 21 21 17 14 13 12 13 14 9 7 9 10 13 16 21 30 29 24 26 26 26 31 28 20 13 3 356 348 331 305 284 270 258 256 255 244 236 233 231 231 227 225 227 225 220 217 217 214 210 209 210
99 98 95 89 79 77 76 80 85 79 81 66 49 39 30 26 22 27 45 51 46 35 29 33 23 6 351 354 357 344 332 342 341 351 12 20 13 11 8 8 14 13 9 9 9 10 15 17 23 29 26 22 25 25 24 26 25 22 17 13 11 9 2 349 336 310 276 265 258 249 245 239 234 232 229 225 224 223 220 217 216 215 209 205 203
96 92 88 87 84 90 93 95 95 87 82 70 59 52 43 39 37 43 59 62 56 46 44 46 40 34 26 335 346 3 359 346 332 327 3 14 8 11 6 8 16 14 12 13 13 15 18 19 25 26 20 20 20 15 13 8 5 6 4 5 7 7 8 4 0 352 320 292 273 260 254 247 237 233 232 227 222 221 220 218 217 216 211 205 202
96 91 88 92 95 103 106 104 100 90 82 77 70 59 50 48 49 58 67 66 63 57 53 51 51 55 57 42 359 10 326 334 332 311 344 356 4 9 6 12 18 14 13 14 15 18 18 19 23 19 15 20 15 5 4 358 354 356 355 357 359 359 2 1 358 356 346 334 317 292 273 257 243 237 235 230 224 220 220 218 217 216 213 208 204
96 93 92 98 102 105 106 103 95 88 85 78 68 57 54 59 61 67 69 66 70 65 58 56 59 62 63 69 65 50 10 345 347 306 329 344 5 360 3 13 16 14 13 13 14 16 17 17 17 13 13 19 11 360 358 354 350 351 352 353 354 354 356 356 355 351 348 346 338 326 308 280 259 247 237 232 229 222 220 219 217 215 215 211 207
94 92 94 100 103 104 102 98 91 84 79 70 66 66 69 72 70 71 72 70 72 68 60 58 61 59 60 67 65 56 47 36 33 324 327 329 347 352 1 9 10 12 11 11 11 11 15 16 11 9 12 14 6 358 356 352 350 351 351 351 351 354 355 354 353 350 350 349 339 332 329 313 288 262 240 231 230 225 221 221 218 216 215 213 210
91 88 92 98 101 105 101 97 90 80 75 74 76 77 77 76 73 73 73 69 68 68 62 54 52 50 52 61 63 55 50 48 41 22 359 311 332 346 353 356 4 9 5 7 8 8 12 12 7 7 10 8 0 356 354 352 351 352 352 351 352 354 355 354 351 348 348 349 342 335 333 330 319 292 257 237 231 227 224 222 220 217 216 215 212
90 86 91 96 99 105 105 101 93 84 82 81 80 79 77 74 72 72 72 69 68 68 64 59 59 60 59 62 64 56 51 48 41 34 27 346 333 338 340 345 353 358 359 2 3 6 11 7 5 7 7 2 356 354 354 352 351 352 351 351 352 353 353 349 347 346 346 345 342 338 337 335 329 317 290 256 236 227 225 224 223 219 218 217 213
90 88 92 99 102 106 107 103 98 93 89 85 83 82 79 76 73 74 74 72 71 69 69 71 72 72 69 66 64 57 51 44 38 34 28 10 343 332 339 342 338 337 349 356 356 2 8 3 4 7 3 357 354 352 352 351 350 350 350 351 351 350 347 345 344 346 346 344 342 339 339 339 333 324 314 286 250 232 225 224 223 221 219 217 215
94 96 98 104 106 106 105 102 100 98 94 90 88 86 84 81 77 76 75 73 72 71 72 74 74 72 70 67 64 61 57 51 43 39 36 22 351 332 338 338 327 324 339 348 351 360 4 359 2 3 357 353 352 351 350 348 349 350 350 348 346 345 345 345 346 346 344 342 341 341 339 340 338 329 319 309 281 248 232 223 221 221 219 218 216
100 102 103 108 107 106 105 100 97 96 95 94 90 87 87 84 79 76 75 74 72 70 70 69 69 70 70 67 65 62 58 54 49 45 43 35 19 355 339 341 330 323 335 342 347 355 359 355 358 357 353 351 349 349 348 347 348 349 347 344 342 345 346 347 346 343 342 341 340 340 340 340 338 333 325 315 307 277 243 226 219 220 221 219 218
104 105 106 108 107 106 104 98 95 94 96 96 90 88 87 83 79 76 75 76 72 70 70 69 70 72 70 67 62 58 54 49 49 47 44 36 26 9 347 348 335 323 334 340 343 349 351 351 354 353 351 350 347 347 347 346 346 346 343 340 342 345 346 345 344 341 340 340 338 337 338 340 337 336 334 321 313 305 263 234 222 220 221 220 219
108 109 108 108 106 104 103 99 96 94 96 96 91 89 88 83 80 77 76 77 75 74 76 75 74 71 68 65 59 55 53 51 51 48 42 36 27 11 350 346 339 331 334 337 342 346 342 343 349 351 350 349 346 346 346 345 344 342 340 339 341 343 343 342 342 341 339 337 336 336 337 338 335 336 341 333 318 316 297 253 229 220 220 221 220
111 113 112 110 106 104 103 100 97 94 95 95 91 89 87 84 82 79 78 78 76 78 82 80 76 71 65 61 56 55 55 51 49 45 39 35 28 18 7 354 343 342 337 332 338 343 338 338 343 348 349 346 345 345 344 343 342 340 339 339 339 339 340 340 339 338 338 336 335 336 337 335 331 333 339 339 328 319 316 285 247 227 220 219 219
111 113 113 112 108 106 103 100 98 96 94 93 90 87 86 85 83 81 81 79 76 79 82 78 73 69 61 55 56 58 54 48 43 37 32 30 26 22 19 13 355 342 341 334 334 336 339 340 340 341 345 345 343 344 343 342 342 340 338 338 336 336 337 336 336 335 336 336 335 335 336 331 325 326 332 336 334 327 323 309 278 247 228 219 217
115 114 114 114 112 109 105 102 100 98 95 93 89 86 84 83 81 79 80 80 78 78 77 74 69 63 57 56 58 57 50 43 38 30 25 22 22 22 21 19 10 352 339 338 330 328 335 339 336 334 339 342 341 341 341 340 340 339 337 336 334 334 334 333 332 333 334 334 333 333 331 326 320 320 325 331 330 327 326 318 303 274 243 225 217
122 118 117 116 114 112 108 104 101 98 96 94 90 87 85 83 80 78 78 81 82 79 73 70 66 58 55 58 56 51 46 41 33 25 23 21 21 23 24 24 20 10 349 331 323 325 330 333 333 332 335 338 338 336 336 336 337 336 334 333 333 332 332 331 331 331 331 331 331 329 326 323 320 318 321 326 323 318 320 319 313 297 263 236 220
125 121 117 115 115 115 112 109 105 100 97 95 93 90 87 85 81 78 81 83 82 79 72 66 61 52 52 56 52 47 43 38 31 25 23 25 27 29 29 28 24 14 356 335 319 327 330 328 329 332 334 335 335 334 333 334 334 333 333 331 331 330 329 329 329 328 328 328 327 325 323 323 323 321 320 321 318 312 311 314 313 309 290 253 227
126 123 118 116 116 116 115 114 110 104 100 98 97 94 91 88 84 83 88 88 82 79 72 64 57 47 49 56 52 45 39 33 28 25 24 28 33 35 32 25 20 11 353 337 318 321 329 329 328 331 334 334 334 334 333 332 332 332 332 330 328 328 327 327 327 326 326 325 324 322 323 324 323 321 319 315 311 308 305 307 310 308 302 272 236
128 125 119 117 117 118 119 119 118 112 105 102 101 98 95 92 86 86 91 90 84 80 71 62 54 47 52 60 53 41 34 29 25 24 25 28 31 32 27 17 10 6 352 335 319 313 324 330 330 330 334 335 335 336 334 332 331 331 329 328 326 326 325 324 323 322 322 321 321 321 321 321 320 317 316 312 307 304 302 303 305 307 304 286 250
127 123 118 118 118 122 125 125 126 122 112 107 107 102 97 94 91 90 93 91 87 80 69 59 51 50 58 61 51 39 31 26 24 23 24 26 25 22 17 10 2 359 353 336 320 310 315 324 328 329 332 333 332 334 334 330 329 329 327 326 325 324 322 321 319 318 318 318 318 319 318 317 316 315 315 314 310 304 302 303 303 305 307 294 264
122 116 114 115 114 118 124 129 133 130 120 113 111 107 102 100 98 98 97 92 87 82 71 59 54 58 62 57 46 34 25 23 20 18 21 23 21 15 9 4 355 350 349 338 322 309 307 315 323 324 326 328 327 328 329 327 326 326 325 324 324 323 320 319 317 315 315 316 316 315 315 313 312 313 314 315 313 306 302 305 302 301 306 302 278
120 114 108 105 109 111 116 127 134 133 126 119 116 112 107 106 107 106 102 97 93 88 76 67 65 67 63 49 38 26 20 20 17 13 16 18 15 10 5 360 353 344 341 337 326 314 304 306 315 319 320 322 322 324 325 323 324 324 323 322 323 322 320 317 315 313 313 314 314 313 312 311 311 311 312 313 314 309 303 302 299 295 299 304 292
122 117 106 102 110 110 110 122 132 134 129 122 121 119 112 110 113 109 103 106 108 96 80 75 74 69 56 37 27 21 18 17 14 9 10 12 9 5 359 355 350 343 338 335 329 319 308 302 307 314 317 317 318 321 323 322 321 321 321 321 321 320 318 316 314 313 314 314 313 312 311 310 310 310 310 311 312 310 303 297 293 292 293 298 298
123 114 104 102 110 111 109 117 128 133 131 125 124 123 116 113 113 106 101 115 124 107 86 84 77 57 43 30 19 19 19 15 12 8 6 7 3 358 354 350 346 341 337 334 330 322 312 305 305 310 314 316 316 318 322 322 319 318 318 319 319 319 317 316 315 314 314 312 311 311 310 309 309 308 307 310 311 307 299 292 288 290 289 290 295
121 108 103 106 111 113 113 115 121 128 130 128 127 126 121 117 112 104 100 114 133 125 95 89 76 45 34 30 20 20 19 16 14 10 5 2 358 354 350 346 343 339 334 332 328 323 316 310 308 310 312 314 315 315 319 321 317 315 317 317 316 317 316 315 313 312 312 312 310 309 308 307 306 306 305 306 305 299 295 293 290 289 287 285 289
117 104 103 110 115 116 116 116 118 124 127 128 127 127 126 123 118 113 104 104 130 142 115 90 71 37 32 40 30 23 20 19 16 11 5 359 353 349 348 345 341 337 333 330 326 322 318 313 311 312 312 314 315 316 318 321 319 318 319 317 310 310 312 311 309 309 310 309 309 308 306 306 304 303 302 301 300 297 297 298 295 289 286 282 281
115 105 107 114 117 118 118 118 119 123 125 124 123 124 126 126 123 118 106 96 110 139 140 110 74 43 51 55 34 24 22 18 13 8 4 359 352 347 346 343 340 336 332 329 325 321 318 315 314 315 315 314 315 317 318 321 321 318 318 315 307 304 306 305 303 305 307 306 306 304 303 303 302 301 300 298 298 298 297 297 296 291 285 280 277
115 112 114 115 116 118 119 120 121 120 119 116 116 119 122 129 127 113 112 107 92 96 147 162 119 113 118 60 32 25 20 14 9 6 3 358 353 348 344 343 340 337 332 326 324 321 318 315 316 317 315 312 314 316 317 319 319 318 317 315 310 307 306 303 301 304 307 306 304 301 299 300 301 299 298 296 295 296 295 295 296 292 285 278 275
116 114 111 111 113 116 119 121 120 118 116 111 111 115 120 129 124 99 116 124 90 68 79 202 190 157 154 48 31 23 14 8 6 4 360 354 349 345 343 343 343 341 336 328 322 321 319 316 316 317 313 310 313 316 317 318 319 317 315 313 309 307 306 303 302 304 307 309 304 299 296 297 297 295 293 293 293 293 293 293 294 291 285 278 274
115 111 106 106 109 112 117 119 118 119 119 113 113 120 124 127 120 99 110 117 88 56 43 35 187 173 137 38 25 14 7 5 3 358 353 348 345 342 342 344 346 348 345 336 329 324 321 317 315 316 313 310 313 316 318 318 318 316 314 311 308 304 300 297 296 297 302 306 302 295 293 294 295 293 290 289 290 290 292 292 293 291 285 279 274
115 108 104 103 104 107 112 115 116 120 123 121 122 127 135 142 145 136 113 88 74 47 34 61 160 168 91 20 10 3 2 2 357 351 346 343 341 341 342 346 350 353 351 346 342 336 329 322 315 313 316 314 312 314 317 318 318 315 314 311 308 304 298 295 294 295 299 302 296 289 288 290 292 290 286 287 288 288 289 291 292 290 286 281 277
129 116 107 102 99 99 103 106 109 112 117 124 134 142 156 179 214 221 205 93 71 63 56 89 145 165 356 356 355 355 355 353 347 343 341 340 343 345 347 350 355 357 354 351 350 345 338 331 321 316 320 319 314 313 318 320 317 314 312 310 308 305 299 297 296 295 296 295 290 284 281 285 290 288 282 285 288 287 287 290 290 289 286 282 277
149 138 125 109 99 96 96 99 100 99 99 111 136 163 179 210 254 258 184 162 109 83 81 98 124 148 329 337 344 348 347 343 342 343 342 344 349 352 353 354 355 357 357 354 351 346 341 336 329 323 323 322 318 317 320 321 318 314 312 310 307 304 300 297 298 297 296 293 287 279 274 283 288 284 280 284 287 286 287 288 287 286 284 281 277
157 154 145 130 114 101 95 94 93 90 86 87 100 130 144 127 70 71 86 130 137 107 90 90 90 60 347 335 339 342 341 341 344 348 349 349 354 356 353 353 353 354 355 354 349 344 340 337 335 331 328 326 324 321 322 323 321 318 316 312 308 306 301 297 299 299 298 295 289 277 272 281 285 281 280 284 285 285 286 286 285 284 282 279 275
163 162 156 147 137 119 103 94 88 84 81 76 74 79 81 73 65 63 69 96 124 117 97 88 75 52 11 347 345 343 345 348 351 354 353 352 355 355 352 351 351 350 352 352 347 342 341 340 338 336 333 331 328 325 326 327 326 324 319 313 310 309 303 297 300 301 300 300 294 281 270 274 279 279 280 283 284 283 285 287 288 288 283 279 275
165 166 164 157 149 136 119 105 92 83 79 75 67 61 59 53 48 54 65 79 95 102 97 89 71 40 7 356 355 351 352 356 358 360 0 357 355 354 351 349 348 347 349 349 345 342 343 342 340 338 336 334 332 329 329 330 329 328 322 314 312 311 305 300 303 304 303 301 295 283 268 268 276 279 280 285 287 284 283 286 289 289 285 284 286
171 172 169 162 155 149 139 126 109 91 78 72 64 54 49 41 39 51 69 78 80 80 78 72 54 28 10 3 2 358 358 3 5 6 7 3 358 357 354 350 347 346 348 348 344 342 341 340 340 338 337 337 335 333 333 332 332 331 325 319 316 312 305 303 304 305 304 301 301 297 281 276 280 280 278 284 293 290 286 284 284 284 282 285 293